www.pogodaiklimat.ru

Погода и климат >> Архив погоды >> Иран >> Харк


ПОГОДА на Харке

  • Прогноз погоды на Харке
  • Монитор погоды на Харке

АРХИВ ПОГОДЫ на Харке

Время (UTC), дата Ветер
(напр.,м/с)
 
Видим.   Явления Облачность Т
(С)
Тd
(С)
f
(%)
Тe
(С)
Тes
(С)
Комфортность P
(гПа)
Po
(гПа)
Тmin
(С)
Tmax
(С)
R
(мм)
R24
(мм)
S
(см)
12 17.04 ЮВ 5 10 км ясно +29.6 +15.0 41 +32 +37 душно 1008.9 1008.4
15 17.04 ЮВ 4 10 км 4/4 1200 м
[Sc]
+28.3 +14.1 42 +30 +30 жарко 1008.1 1007.6 +30.8
03 18.04 СЗ 3 10 км 10/4 1200 м
[Sc As op]
+23.1 +20.1 83 +30 +30 очень
душно
1011.7 1011.2 +22.5
06 18.04 В 7 10 км 8/3 1200 м
[Sc Ac As]
+26.3 +17.6 59 +31 +32 душно 1009.9 1009.4
09 18.04 В 4 10 км 5/1 1200 м
[Sc Ac As]
+31.3 +14.2 35 +33 +41 жарко 1010.9 1010.4
12 18.04 ЮВ 6 10 км 4/1 1200 м
[Sc Ac As]
+29.9 +15.2 41 +32 +35 жарко 1008.8 1008.3
15 18.04 ЮВ 6 10 км 3/0
[Ci fib]
+27.3 +15.6 49 +30 +30 душно 1007.3 1006.8 +31.8 666
03 19.04 Ю 2 10 км 5/5 1200 м
[Sc]
+24.6 +17.5 65 +29 +29 душно 1008.3 1007.8 +23.0 666
06 19.04 В 4 10 км в посл. час гроза 5/5 1050 м
[Sc]
+26.3 +20.4 70 +33 +37 очень
душно
1009.6 1009.1 0.6
09 19.04 СВ 3 10 км {гроза, дождь} 4/4 1050 м
[Sc]
+28.1 +20.7 64 +35 +45 очень
душно
1009.8 1009.3 666
12 19.04 Ю 4 10 км {гроза, дождь} 3/3 1200 м
[Sc]
+28.3 +20.2 62 +35 +39 очень
душно
1008.0 1007.5 1
15 19.04 Ю 2 10 км 1/1 1200 м
[Sc]
+25.3 +21.3 79 +32 +32 очень
душно
1008.3 1007.8 +29.8
03 20.04 штиль 0 5000 м дымка ясно +21.0 +20.8 99 +26 +27 душно 1008.3 1007.8 +19.6 666
06 20.04 штиль 0 7000 м мгла ясно +25.4 +21.5 79 +32 +50 очень
душно
1009.0 1008.5
09 20.04 З 6 7000 м дымка 3/0
[Ci fib]
+25.4 +22.6 85 +33 +41 очень
душно
1009.1 1008.6
12 20.04 З 6 10 км 4/0
[Ci sp]
+26.2 +20.5 71 +33 +36 очень
душно
1007.5 1007.0
15 20.04 З 5 10 км 5/0
[Cs]
+25.5 +19.1 68 +31 +31 очень
душно
1007.1 1006.6 +27.0
03 21.04 СЗ 8 10 км 1/0
[Ci fib]
+22.7 +16.2 67 +27 +27 душно 1009.0 1008.5 +22.5
06 21.04 СЗ 7 10 км ясно +24.5 +17.1 63 +28 +32 душно 1009.5 1009.0
09 21.04 З 7 10 км ясно +25.8 +17.4 60 +30 +36 душно 1008.7 1008.2
12 21.04 З 6 10 км 1/1 1200 м
[Sc]
+26.2 +18.6 63 +31 +34 очень
душно
1006.4 1005.9
15 21.04 З 4 10 км 1/1 1200 м
[Sc]
+24.4 +19.3 73 +29 +29 душно 1005.0 1004.5 +26.7
03 22.04 ЮВ 2 10 км 4/4 1200 м
[Sc]
+20.0 +16.6 81 +23 +24 комфорт 1005.5 1005.0 +19.0 666
06 22.04 З 9 10 км ясно +24.1 +18.8 72 +29 +30 душно 1009.8 1009.3
09 22.04 З 13 8000 м пыльный позёмок 3/3 1200 м
[Sc]
+22.7 +13.9 58 +26 +26 жарко 1010.7 1010.2 666
12 22.04 З 11 8000 м пыльный позёмок ясно +23.0 +15.1 61 +27 +27 душно 1010.8 1010.3
15 22.04 З 9 8000 м мгла ясно +22.1 +15.0 64 +26 +26 душно 1010.7 1010.2 +26.3
03 23.04 СЗ 12 10 км ясно +19.9 +7.9 46 +20 +20 1014.8 1014.3 +18.8
06 23.04 СЗ 10 10 км ясно +21.8 +9.1 44 +23 +24 комфорт 1016.8 1016.3
09 23.04 З 9 10 км ясно +22.5 +11.3 49 +25 +27 комфорт 1017.2 1016.7
12 23.04 З 9 10 км ясно +23.4 +12.9 52 +26 +27 жарко 1016.8 1016.3
15 23.04 З 6 10 км ясно +22.3 +13.4 57 +25 +25 комфорт 1016.3 1015.8 +24.0 666
03 24.04 СЗ 12 10 км ясно +20.7 +12.5 59 +22 +22 комфорт 1017.4 1016.9 +20.0
06 24.04 З 10 10 км ясно +21.8 +11.8 53 +24 +25 комфорт 1018.9 1018.4
09 24.04 З 11 10 км ясно +22.5 +13.6 57 +26 +26 жарко 1018.3 1017.8

 

Местоположение метеостанции Харк (Иран): широта 29.26 долгота 50.32 высота над уровнем моря 3 м.

В архиве по умолчанию представлена погода на Харке за последнюю неделю. Архивные данные за месяц целиком и за предыдущие месяцы, начиная с января 2011 года, Вы можете получить, выбрав интересующий диапазон дат из раскрывающегося списка и нажав кнопку "Ввод!".


*Определитесь, кто Вы:
робот инопланетянин человек

Внимание! Время в таблицах - всемирное. Для получения местного времени необходимо прибавить поправку, которая равна 3.5 ч.

Смотрите также архив погоды в соседних городах и на ближайших метеорологических станциях:

Погода в Бушир аэропорту (Иран) (59 км)
Погода в Бушире (Иран) (62 км)
Погода в Гечсаране (Иран) (137 км)
Погода в Нувасибе (Кувейт) (175 км)
Погода в Умм-Аль-Марадим (Кувейт) (175 км)
Погода в Омидийе (Иран) (179 км)
Погода в Эль-Фао (Ирак) (193 км)
Погода на Бубияне (Кувейт) (196 км)
Погода в Ясудже (Иран) (198 км)
Погода Остров Файлака (Кувейт) (199 км)

Пояснения к столбцам:

Ветер - указаны скорость ветра в м/с - средняя за 10 мин, порывы в срок и между сроками (в фигурных скобках) и направление, откуда дует ветер: С - северный, СВ - северо-восточный, В - восточный, ЮВ - юго-восточный, Ю - южный, ЮЗ - юго-западный, З - западный, СЗ - северо-западный.
Видимость - горизонтальная дальность видимости в метрах или километрах. При видимости от 1 до 10 км при отсутствии осадков обычно наблюдается дымка, при ухудшении видимости до 1 км и менее - туман. В сухую погоду видимость может ухудшаться дымом, пылью или мглою.
Явления - указаны атмосферные явления, наблюдавшиеся в срок или в последний час перед сроком; фигурными скобками обозначены явления, наблюдавшиеся между сроками (за 1-3 часа до срока); квадратными скобками обозначены град или гололедные отложения с указанием их диаметра в мм.
Облачность - указаны через наклонную черту общая и нижняя облачность в баллах и высота нижней границы облаков в метрах; квадратными скобками обозначены формы облаков: Ci - перистые, Cs - перисто-слоистые, Cc - перисто-кучевые, Ac - высококучевые, As - высокослоистые, Sc - слоисто-кучевые, Ns - слоисто-дождевые, Cu - кучевые, Cb - кучево-дождевые. Подробнее классификацию облаков см. в Атласе облаков (PDF).
T - Температура воздуха - температура, измеренная на высоте 2 м над землей.
Td - Температура точки росы - температура, при понижении до которой содержащийся в воздухе водяной пар достигнет насыщения.
f - Относительная влажность воздуха - влажноcть воздуха, измеренная на высоте 2 м над землей.
Te - Эффективная температура - температура, которую ощущает одетый по сезону человек в тени. Характеристика душности погоды. При расчете учитывается влияние влажности воздуха и скорости ветра на теплоощущения человека.
Tes - Эффективная температура на солнце - температура, которую ощущает человек, с поправкой на солнечный нагрев. Характеристика знойности погоды. Зависит от высоты солнца над горизонтом, облачности и скорости ветра. Ночью, в пасмурную погоду, а также при ветре 12 м/с и более поправка равна нулю.
P - Атмосферное давление - приведенное к уровню моря атмосферное давление.
Po - Атмосферное давление - измеренное на уровне метеостанции атмосферное давление.
Tmin - Минимальная температура - минимум температуры воздуха на высоте 2 м над землей.
Tmax - Максимальная температура - максимум температуры воздуха на высоте 2 м над землей.
R - Количество осадков - Количество выпавших осадков за период времени, мм. При наведении курсора мыши на число - период времени, за который выпало указанное количество осадков.
R24 - Количество осадков - Количество выпавших осадков за 24 часа, мм.
S - Снежный покров - Высота снежного покрова, см. При наведении курсора мыши на число - состояние снежного покрова и степень покрытия местности в баллах.